Location: Los Ranchitos
(37.9930°N, 122.5425°W)
Time: 07:32:41
(UTC+00:00)

Cosmos 1844 - Pass Details

Date: 21 September 2020
Orbit: 824 x 866 km, 70.9° (Epoch: 27 October)

Event Time Altitude Azimuth Distance (km) Brightness Sun altitude
Rises 03:24:42 0° 189° (S) 3,414 6.8 -15.6°
Reaches altitude 10° 03:27:11 10° 185° (S) 2,476 6.0 -16.0°
Maximum altitude 03:32:44 57° 108° (ESE) 990 3.7 -17.1°
Drops below altitude 10° 03:38:16 10° 31° (NNE) 2,463 6.0 -18.2°
Sets 03:40:44 0° 27° (NNE) 3,395 6.7 -18.6°
